Skip Page Navigation
NASA JPL Caltech
NASA Logo - Jet Propulsion Laboratory + View the NASA Portal
+ Center for Near-Earth Object Studies
JPL Home Earth Solar System Stars & Galaxies Technology
JPL Solar System Dynamics
BODIES ORBITS EPHEMERIDES TOOLS PHYSICAL DATA DISCOVERY FAQ SITE MAP
IMPORTANT: The SSD Announcement email list is now available. Major changes are coming in the near future, including possible hostname and/or URL changes. To be notified of such changes, subscribe to this email list.

Please visit this page for more details.


JPL Small-Body Database Browser
Search: [ help ]  
160353 (2003 UV162)
Classification: Main-belt Asteroid          SPK-ID: 2160353
Ephemeris | Orbit Diagram | Orbital Elements | Mission Design | Physical Parameters | Discovery Circumstances ]

[ show orbit diagram ]
Orbital Elements at Epoch 2459000.5 (2020-May-31.0) TDB
Reference: JPL 17 (heliocentric ecliptic J2000)
 Element Value Uncertainty (1-sigma)   Units 
e .1456517015226847 5.2962e-08  
a 2.755946043871554 2.1363e-08 au
q 2.354537813276951 1.4289e-07 au
i 6.393507947000578 5.6764e-06 deg
node 67.08891698819617 4.4574e-05 deg
peri 293.9189988203323 4.789e-05 deg
M 251.198473701891 2.0192e-05 deg
tp 2459505.553028799275
(2021-Oct-18.05302880)
9.6562e-05 TDB
period 1671.107902195846
4.58
1.943e-05
5.32e-08
d
yr
n .2154259455819446 2.5048e-09 deg/d
Q 3.157354274466157 2.4474e-08 au
  Orbit Determination Parameters
   # obs. used (total)      486  
   data-arc span      9160 days (25.08 yr)  
   first obs. used      1994-12-28  
   last obs. used      2020-01-26  
   planetary ephem.      DE431  
   SB-pert. ephem.      SB431-N16  
   condition code      0  
   norm. resid. RMS      .60791  
   source      ORB  
   producer      Otto Matic  
   solution date      2020-Feb-24 13:18:54  

Additional Information
 Earth MOID = 1.36087 au 
 Jupiter MOID = 2.32124 au 
 T_jup = 3.319 
[ show covariance matrix ]

Ephemeris | Orbit Diagram | Orbital Elements | Mission Design | Physical Parameters | Discovery Circumstances ]

Physical Parameter Table
Parameter Symbol Value Units Sigma Reference Notes
absolute magnitude H 15.3   n/a MPO338315  
diameter diameter 4.781 km 0.353 urn:nasa:pds:neowise_diameters_albedos::2.0[mainbelt] (http://adsabs.harvard.edu/abs/2011ApJ...741...68M)  
rotation period rot_per 11.707 h n/a LCDB (Rev. 2019-August); Warner et al., 2009 Result based on less than full coverage, so that the period may be wrong by 30 percent or so.
Published Reference List:
[Waszczak, A.; Chang, C.-K.; Ofeck, E.O.; Laher, F.; et al. (2015) Astron. J. 150, A75.]
geometric albedo albedo 0.059   0.017 urn:nasa:pds:neowise_diameters_albedos::2.0[mainbelt] (http://adsabs.harvard.edu/abs/2011ApJ...741...68M)  

160353 (2003 UV162)          Discovered 2003-Oct-21 by LINEAR at Socorro
Reference: 20070730/Numbers.arcLast Updated: 2007-08-06
Ephemeris | Orbit Diagram | Orbital Elements | Mission Design | Physical Parameters | Discovery Circumstances ]
ABOUT SSD CREDITS/AWARDS PRIVACY/COPYRIGHT GLOSSARY LINKS
FirstGov 2020-Feb-26 00:43 UT
(server date/time)  
NASA Home Page
Site Manager:   Ryan S. Park
Webmaster  Alan B. Chamberlin